| time (UTC) | temp C | wind direction | speed KPH | gust KPH | rain 1hr cm | rain 24hr cm | rain mn cm | humidity % | barometer mb |
| 20260508092020 | 17 | 0.0 | 3.2 | 0.00 | 0.00 | 0.00 | 82 | 1019.6 | |
| 20260508091019 | 18 | 0 | 1.6 | 4.8 | 0.00 | 0.00 | 0.00 | 80 | 1019.5 |
| 20260508090019 | 18 | 0 | 1.6 | 4.8 | 0.00 | 0.00 | 0.00 | 79 | 1019.3 |
| 20260508085018 | 18 | 0.0 | 1.6 | 0.00 | 0.00 | 0.00 | 78 | 1019.0 | |
| 20260508084019 | 18 | 0 | 1.6 | 4.8 | 0.00 | 0.00 | 0.00 | 77 | 1018.9 |
| 20260508083023 | 18 | 0 | 1.6 | 6.4 | 0.00 | 0.00 | 0.00 | 75 | 1018.9 |
| 20260508082018 | 19 | 0 | 1.6 | 3.2 | 0.00 | 0.00 | 0.00 | 72 | 1018.9 |
| 20260508081018 | 19 | 0.0 | 3.2 | 0.00 | 0.00 | 0.00 | 71 | 1018.7 | |
| 20260508080019 | 19 | 0.0 | 3.2 | 0.00 | 0.00 | 0.00 | 73 | 1018.2 | |
| 20260508075019 | 18 | 0.0 | 1.6 | 0.00 | 0.00 | 0.00 | 76 | 1018.1 | |
| 20260508074022 | 18 | 0 | 1.6 | 4.8 | 0.00 | 0.00 | 0.00 | 79 | 1018.2 |
| 20260508073020 | 17 | 0.0 | 1.6 | 0.00 | 0.00 | 0.00 | 81 | 1018.2 | |
| 20260508072020 | 17 | 0.0 | 3.2 | 0.00 | 0.00 | 0.00 | 81 | 1018.5 | |
| 20260508071019 | 17 | 0.0 | 1.6 | 0.00 | 0.00 | 0.00 | 81 | 1018.7 | |
| 20260508070043 | 17 | 0.0 | 1.6 | 0.00 | 0.00 | 0.00 | 82 | 1018.9 | |
| 20260508065020 | 17 | 0.0 | 3.2 | 0.00 | 0.00 | 0.00 | 82 | 1018.8 | |
| 20260508064019 | 17 | 0 | 1.6 | 3.2 | 0.00 | 0.00 | 0.00 | 82 | 1018.7 |
| 20260508063020 | 17 | 0 | 3.2 | 8.0 | 0.00 | 0.00 | 0.00 | 83 | 1018.7 |
| 20260508062018 | 17 | 0 | 1.6 | 4.8 | 0.00 | 0.00 | 0.00 | 82 | 1018.4 |
| 20260508061020 | 17 | 0 | 1.6 | 4.8 | 0.00 | 0.00 | 0.00 | 82 | 1018.2 |
| 20260508060018 | 17 | 0.0 | 1.6 | 0.00 | 0.00 | 0.00 | 83 | 1018.1 | |
| 20260508055020 | 17 | 0.0 | 0.0 | 0.00 | 0.00 | 0.00 | 83 | 1017.7 | |
| 20260508054020 | 17 | 0.0 | 0.0 | 0.00 | 0.00 | 0.00 | 83 | 1017.6 | |
| 20260508053019 | 17 | 0.0 | 0.0 | 0.00 | 0.00 | 0.00 | 83 | 1017.6 | |
| 20260508052042 | 17 | 0.0 | 1.6 | 0.00 | 0.00 | 0.00 | 83 | 1017.6 | |
| 20260508051020 | 16 | 0.0 | 0.0 | 0.00 | 0.00 | 0.00 | 83 | 1017.6 | |
| 20260508050020 | 16 | 0.0 | 1.6 | 0.00 | 0.00 | 0.00 | 83 | 1017.6 | |
| 20260508045020 | 16 | 0.0 | 0.0 | 0.00 | 0.00 | 0.00 | 83 | 1017.5 | |
| 20260508044020 | 16 | 0.0 | 0.0 | 0.00 | 0.00 | 0.00 | 83 | 1017.5 | |
| 20260508043019 | 16 | 0.0 | 0.0 | 0.00 | 0.00 | 0.00 | 87 | 1017.3 | |
| 20260508042018 | 16 | 0.0 | 0.0 | 0.00 | 0.00 | 0.00 | 87 | 1017.2 | |
| 20260508041019 | 16 | 0.0 | 0.0 | 0.00 | 0.00 | 0.00 | 87 | 1017.1 | |
| 20260508040020 | 15 | 0.0 | 0.0 | 0.00 | 0.00 | 0.00 | 87 | 1017.1 | |
| 20260508035018 | 15 | 0.0 | 0.0 | 0.00 | 0.00 | 0.00 | 86 | 1017.2 | |
| 20260508034018 | 15 | 0.0 | 0.0 | 0.00 | 0.00 | 0.00 | 86 | 1017.4 | |
| 20260508033018 | 15 | 0.0 | 0.0 | 0.00 | 0.00 | 0.00 | 86 | 1017.5 | |
| 20260508032041 | 15 | 0.0 | 0.0 | 0.00 | 0.00 | 0.00 | 85 | 1017.5 | |
| 20260508031041 | 15 | 0.0 | 0.0 | 0.00 | 0.00 | 0.00 | 85 | 1017.3 | |
| 20260508030018 | 15 | 0.0 | 0.0 | 0.00 | 0.00 | 0.00 | 85 | 1017.3 | |
| 20260508025020 | 15 | 0.0 | 0.0 | 0.00 | 0.00 | 0.00 | 84 | 1017.4 | |
| 20260508024020 | 16 | 0.0 | 0.0 | 0.00 | 0.00 | 0.00 | 84 | 1017.3 | |
| 20260508023020 | 16 | 0.0 | 0.0 | 0.00 | 0.00 | 0.00 | 83 | 1017.2 | |
| 20260508022018 | 16 | 0.0 | 0.0 | 0.00 | 0.00 | 0.00 | 83 | 1017.1 | |
| 20260508021018 | 16 | 0.0 | 0.0 | 0.00 | 0.00 | 0.00 | 82 | 1017.0 | |
| 20260508020021 | 16 | 0.0 | 0.0 | 0.00 | 0.00 | 0.00 | 82 | 1017.0 | |
| 20260508015020 | 16 | 0.0 | 0.0 | 0.00 | 0.00 | 0.00 | 81 | 1017.1 | |
| 20260508014041 | 16 | 0.0 | 0.0 | 0.00 | 0.00 | 0.00 | 81 | 1017.1 | |
| 20260508013020 | 16 | 0.0 | 0.0 | 0.00 | 0.00 | 0.00 | 81 | 1017.1 | |
| 20260508012018 | 16 | 0.0 | 0.0 | 0.00 | 0.00 | 0.00 | 81 | 1017.2 | |
| 20260508011017 | 16 | 0.0 | 0.0 | 0.00 | 0.00 | 0.00 | 80 | 1017.4 | |
| 20260508010018 | 16 | 0.0 | 0.0 | 0.00 | 0.00 | 0.00 | 80 | 1017.5 | |
| 20260508005017 | 16 | 0.0 | 0.0 | 0.00 | 0.00 | 0.00 | 80 | 1017.5 | |
| 20260508004019 | 16 | 0.0 | 0.0 | 0.00 | 0.00 | 0.00 | 80 | 1017.6 | |
| 20260508003019 | 16 | 0.0 | 0.0 | 0.00 | 0.00 | 0.00 | 80 | 1017.7 | |
| 20260508002018 | 16 | 0.0 | 0.0 | 0.00 | 0.00 | 0.00 | 80 | 1017.8 | |
| 20260508001017 | 16 | 0.0 | 0.0 | 0.00 | 0.00 | 0.00 | 80 | 1017.8 | |
| 20260508000041 | 16 | 0.0 | 0.0 | 0.00 | 0.00 | 0.00 | 79 | 1017.9 | |
| 20260507235018 | 16 | 0.0 | 0.0 | 0.00 | 0.00 | 0.00 | 79 | 1017.9 | |
| 20260507234018 | 16 | 0.0 | 0.0 | 0.00 | 0.00 | 0.00 | 79 | 1017.9 | |
| 20260507233017 | 16 | 0.0 | 0.0 | 0.00 | 0.00 | 0.00 | 79 | 1017.9 | |
| 20260507232040 | 16 | 0.0 | 0.0 | 0.00 | 0.00 | 0.00 | 79 | 1018.0 | |
| 20260507231019 | 16 | 0.0 | 0.0 | 0.00 | 0.00 | 0.00 | 79 | 1018.2 | |
| 20260507230017 | 16 | 0.0 | 0.0 | 0.00 | 0.00 | 0.00 | 78 | 1018.3 | |
| 20260507225017 | 17 | 0.0 | 0.0 | 0.00 | 0.00 | 0.00 | 78 | 1018.3 | |
| 20260507224017 | 17 | 0.0 | 0.0 | 0.00 | 0.00 | 0.00 | 78 | 1018.5 | |
| 20260507223017 | 17 | 0.0 | 0.0 | 0.00 | 0.00 | 0.00 | 78 | 1018.7 | |
| 20260507222017 | 17 | 0.0 | 0.0 | 0.00 | 0.00 | 0.00 | 78 | 1018.7 | |
| 20260507221019 | 17 | 0.0 | 0.0 | 0.00 | 0.00 | 0.00 | 78 | 1018.5 | |
| 20260507220017 | 17 | 0.0 | 0.0 | 0.00 | 0.00 | 0.00 | 78 | 1018.5 | |
| 20260507215017 | 17 | 0.0 | 0.0 | 0.00 | 0.00 | 0.00 | 78 | 1018.6 | |
| 20260507214019 | 17 | 0.0 | 0.0 | 0.00 | 0.00 | 0.00 | 77 | 1018.5 | |
| 20260507213017 | 17 | 0.0 | 0.0 | 0.00 | 0.00 | 0.00 | 77 | 1018.6 | |
| 20260507212018 | 17 | 0.0 | 0.0 | 0.00 | 0.00 | 0.00 | 77 | 1018.5 | |
| 20260507211019 | 17 | 0.0 | 0.0 | 0.00 | 0.00 | 0.00 | 76 | 1018.5 | |
| 20260507210018 | 17 | 0.0 | 0.0 | 0.00 | 0.00 | 0.00 | 76 | 1018.5 | |
| 20260507205018 | 17 | 0.0 | 0.0 | 0.00 | 0.00 | 0.00 | 76 | 1018.5 | |
| 20260507204020 | 17 | 0.0 | 0.0 | 0.00 | 0.00 | 0.00 | 75 | 1018.6 | |
| 20260507203020 | 17 | 0.0 | 0.0 | 0.00 | 0.00 | 0.00 | 75 | 1018.5 | |
| 20260507202020 | 17 | 0.0 | 0.0 | 0.00 | 0.00 | 0.00 | 75 | 1018.4 | |
| 20260507201018 | 17 | 0.0 | 0.0 | 0.00 | 0.00 | 0.00 | 74 | 1018.4 | |
| 20260507200018 | 17 | 0.0 | 0.0 | 0.00 | 0.00 | 0.00 | 74 | 1018.4 | |
| 20260507195020 | 17 | 0.0 | 0.0 | 0.00 | 0.00 | 0.00 | 74 | 1018.5 | |
| 20260507194020 | 18 | 0.0 | 0.0 | 0.00 | 0.00 | 0.00 | 74 | 1018.6 | |
| 20260507193020 | 18 | 0.0 | 0.0 | 0.00 | 0.00 | 0.00 | 73 | 1018.5 | |
| 20260507192018 | 18 | 0.0 | 0.0 | 0.00 | 0.00 | 0.00 | 73 | 1018.5 | |
| 20260507191018 | 18 | 0.0 | 0.0 | 0.00 | 0.00 | 0.00 | 72 | 1018.6 | |
| 20260507190018 | 18 | 0.0 | 0.0 | 0.00 | 0.00 | 0.00 | 72 | 1018.5 | |
| 20260507185018 | 18 | 0.0 | 0.0 | 0.00 | 0.00 | 0.00 | 72 | 1018.5 | |
| 20260507184018 | 18 | 0.0 | 0.0 | 0.00 | 0.00 | 0.00 | 71 | 1018.4 | |
| 20260507183018 | 19 | 0.0 | 0.0 | 0.00 | 0.00 | 0.00 | 70 | 1018.5 | |
| 20260507182018 | 19 | 0.0 | 0.0 | 0.00 | 0.00 | 0.00 | 70 | 1018.4 | |
| 20260507181020 | 19 | 0.0 | 0.0 | 0.00 | 0.00 | 0.00 | 69 | 1018.3 | |
| 20260507180018 | 20 | 0.0 | 0.0 | 0.00 | 0.00 | 0.00 | 68 | 1018.1 | |
| 20260507175041 | 20 | 0.0 | 0.0 | 0.00 | 0.00 | 0.00 | 67 | 1018.3 | |
| 20260507174021 | 20 | 0.0 | 1.6 | 0.00 | 0.00 | 0.00 | 68 | 1018.3 | |
| 20260507173018 | 20 | 0.0 | 0.0 | 0.00 | 0.00 | 0.00 | 67 | 1017.7 | |
| 20260507172041 | 20 | 0.0 | 0.0 | 0.00 | 0.00 | 0.00 | 67 | 1017.5 | |
| 20260507171017 | 20 | 0.0 | 0.0 | 0.00 | 0.00 | 0.00 | 66 | 1017.8 | |
| 20260507170039 | 20 | 0.0 | 0.0 | 0.00 | 0.00 | 0.00 | 65 | 1018.1 | |
| 20260507165041 | 20 | 0.0 | 0.0 | 0.00 | 0.00 | 0.00 | 66 | 1018.3 | |
| 20260507164018 | 20 | 0.0 | 0.0 | 0.00 | 0.00 | 0.00 | 65 | 1018.4 | |
| 20260507163018 | 20 | 0.0 | 0.0 | 0.00 | 0.00 | 0.00 | 65 | 1018.3 | |
| 20260507162018 | 20 | 0.0 | 1.6 | 0.00 | 0.00 | 0.00 | 64 | 1018.4 | |
| 20260507161102 | 20 | 225 | 1.6 | 8.0 | 0.00 | 0.00 | 0.00 | 63 | 1018.5 |
| 20260507160019 | 20 | 0.0 | 0.0 | 0.00 | 0.00 | 0.00 | 63 | 1018.2 | |
| 20260507155017 | 20 | 0.0 | 0.0 | 0.00 | 0.00 | 0.00 | 64 | 1018.2 | |
| 20260507154104 | 20 | 0.0 | 0.0 | 0.00 | 0.00 | 0.00 | 66 | 1018.3 | |
| 20260507153018 | 20 | 0.0 | 0.0 | 0.00 | 0.00 | 0.00 | 67 | 1018.5 | |
| 20260507152019 | 20 | 0.0 | 1.6 | 0.00 | 0.00 | 0.00 | 66 | 1018.6 | |
| 20260507151019 | 21 | 0.0 | 4.8 | 0.00 | 0.00 | 0.00 | 64 | 1018.5 | |
| 20260507150019 | 21 | 0.0 | 4.8 | 0.00 | 0.00 | 0.00 | 60 | 1018.4 | |
| 20260507145102 | 21 | 0.0 | 0.0 | 0.00 | 0.00 | 0.00 | 59 | 1018.4 | |
| 20260507144019 | 21 | 0.0 | 4.8 | 0.00 | 0.00 | 0.00 | 60 | 1018.6 | |
| 20260507143018 | 21 | 0.0 | 3.2 | 0.00 | 0.00 | 0.00 | 59 | 1018.5 | |
| 20260507142019 | 22 | 225 | 3.2 | 8.0 | 0.00 | 0.00 | 0.00 | 58 | 1018.5 |
| 20260507141018 | 22 | 0.0 | 6.4 | 0.00 | 0.00 | 0.00 | 58 | 1018.3 | |
| 20260507140019 | 22 | 225 | 1.6 | 6.4 | 0.00 | 0.00 | 0.00 | 59 | 1018.2 |
| 20260507135018 | 21 | 0.0 | 0.0 | 0.00 | 0.00 | 0.00 | 61 | 1018.2 | |
| 20260507134019 | 21 | 0.0 | 0.0 | 0.00 | 0.00 | 0.00 | 64 | 1018.2 | |
| 20260507133017 | 21 | 0.0 | 0.0 | 0.00 | 0.00 | 0.00 | 67 | 1018.3 | |
| 20260507132017 | 20 | 0.0 | 0.0 | 0.00 | 0.00 | 0.00 | 67 | 1018.4 | |
| 20260507131020 | 21 | 225 | 1.6 | 4.8 | 0.00 | 0.00 | 0.00 | 68 | 1018.6 |
| 20260507130017 | 21 | 225 | 1.6 | 8.0 | 0.00 | 0.00 | 0.00 | 67 | 1018.6 |
| 20260507125019 | 21 | 0.0 | 4.8 | 0.00 | 0.00 | 0.00 | 64 | 1018.6 | |
| 20260507124017 | 21 | 0.0 | 0.0 | 0.00 | 0.00 | 0.00 | 66 | 1018.5 | |
| 20260507123017 | 20 | 0.0 | 0.0 | 0.00 | 0.00 | 0.00 | 67 | 1019.0 | |
| 20260507122040 | 20 | 0.0 | 3.2 | 0.00 | 0.00 | 0.00 | 69 | 1019.5 | |
| 20260507121019 | 20 | 0.0 | 0.0 | 0.00 | 0.00 | 0.00 | 70 | 1019.5 | |
| 20260507120017 | 20 | 0.0 | 3.2 | 0.00 | 0.00 | 0.00 | 70 | 1019.6 | |
| 20260507115017 | 20 | 0.0 | 3.2 | 0.00 | 0.00 | 0.00 | 70 | 1019.8 | |
| 20260507114019 | 20 | 0.0 | 3.2 | 0.00 | 0.00 | 0.00 | 71 | 1020.0 | |
| 20260507113018 | 20 | 0.0 | 0.0 | 0.00 | 0.00 | 0.00 | 72 | 1020.1 | |
| 20260507112042 | 20 | 0.0 | 0.0 | 0.00 | 0.00 | 0.00 | 73 | 1020.2 | |
| 20260507111020 | 20 | 0.0 | 0.0 | 0.00 | 0.00 | 0.00 | 72 | 1020.3 | |
| 20260507110019 | 20 | 0.0 | 0.0 | 0.00 | 0.00 | 0.00 | 70 | 1020.1 | |
| 20260507105044 | 20 | 0.0 | 0.0 | 0.00 | 0.00 | 0.00 | 70 | 1020.1 | |
| 20260507104019 | 20 | 0.0 | 0.0 | 0.00 | 0.00 | 0.00 | 69 | 1020.1 | |
| 20260507103020 | 20 | 0.0 | 0.0 | 0.00 | 0.00 | 0.00 | 68 | 1020.3 | |
| 20260507102019 | 20 | 0.0 | 0.0 | 0.00 | 0.00 | 0.00 | 67 | 1020.3 | |
| 20260507101019 | 20 | 0.0 | 1.6 | 0.00 | 0.00 | 0.00 | 67 | 1020.3 | |
| 20260507100019 | 20 | 0.0 | 3.2 | 0.00 | 0.00 | 0.00 | 68 | 1020.1 | |
| 20260507095020 | 20 | 225 | 1.6 | 6.4 | 0.00 | 0.00 | 0.00 | 67 | 1020.1 |
| 20260507094040 | 20 | 225 | 1.6 | 8.0 | 0.00 | 0.00 | 0.00 | 64 | 1020.0 |
| 20260507093019 | 20 | 0.0 | 0.0 | 0.00 | 0.00 | 0.00 | 63 | 1019.8 |